User: anonymous   Login
Location: Arrodets-la-Barthe
(43.0306°N, 0.2829°E)
Time: 05:08:29
(UTC+00:00)
Language:

Cosmos 2219 Rocket - Orbit

View from above orbital plane
View from above orbital plane
View from above satellite
View from above satellite

Ground track
Ground track

The orbit data is extracted from the following two-line orbital elements,

1 22220U 92076B   22024.57660355  .00000018  00000-0  33195-4 0  9993
2 22220  71.0011 117.7448 0014791 235.4099 220.0926 14.16484773508678
Epoch (UTC): 24 January 2022 13:50:18
Eccentricity: 0.0014791
inclination: 71.0011°
perigee height: 826 km
apogee height: 848 km
right ascension of ascending node: 117.7448°
argument of perigee: 235.4099°
revolutions per day: 14.16484773
mean anomaly at epoch: 220.0926°
orbit number at epoch: 50867

The dashed part of the orbit path shows where the satellite is in the earth's shadow,  

DLR